Showing default

FLOCK 4BE 30, 60499

Orbit data source: Space-Track

FLOCK 4BE 30, 60499 is a payload satellite owned by Planet (US) in SSO that was launched on Fri, 16 Aug 2024 UTC via an FALCON 9 launch vehicle from the Air Force Western Test Range (AFWTR). Payload-class satellites include a variety of spacecraft equipped with specific instruments for various scientific and technological missions. These include communications satellites like Starlink; space stations such as the ISS; scientific satellites like the Hubble; Earth observation satellites from companies like Planet Labs, Umbra, and HawkEye 360; GPS; miniature CubeSats for education and research; and military/defense satellites.

Loading next visibility...
Identifier
60499, 2024-149AH
Orbit
SSO
Country
Flag of USUS
Related business
Manufacturer
Planet
Mission
Operational Commercial Imaging
Bus & Motor
CUBESAT 3U, Unknown motor
Mass
5.7 kg wet, 5.7 kg dry
Launch date (UTC)
2024-08-16 (1 year ago)
Launch vehicle
FALCON 9
Launch site
Air Force Western Test Range (AFWTR)
Object type
Payload
Rocket body
Debris
Shape & HBR
Box + 2 Pan, 1.0 m
Radar Cross Section
0.072 m², Medium (>0.1 m² and < 1m²)

Expand to show TLE details & history
Last TLE update: 8 hours ago

TLE from 8 hours ago
0 FLOCK 4BE 30
1 60499U 24149AH  25311.18279814  .00019291  00000-0  60654-3 0  9996
2 60499  97.4016  29.3730 0003318   7.5562 352.5729 15.33008985 67593
Epoch: 2025-11-07T04:23Z
TLE epoch observation values (Epoch: 2025-11-07T04:23:13.759Z)
Latitude
-0.00007°
Longitude
-83.06475°
Altitude
467.696 km
Speed
7.634 km/s
True Right ascension
01h 57m 29s
True Declination
0° 00' 00"
Sunlit
Object was in full shadow at epoch
Visualization orbit readout
Latitude
Unknown
Longitude
Unknown
Altitude
Unknown
Speed
Unknown
Apparent Right ascension
Unknown
Apparent Declination
Unknown
Sunlit
N/A
Visualization observer readout
Local Sidereal Time
08:20:02
Azimuth
Unknown
Elevation
Unknown
Doppler factor
Unknown
Orbital elements
Apogee altitude
466.059 km
Perigee altitude
461.519 km
Semi-major axis
6,841.926 km
Eccentricity
0.00033
Inclination
97.4016°
RAAN
29.373°
Arg. of periapsis
7.5562°
True anomaly
352.56798°
Mean anomaly
352.5729°
Eccentric anomaly
352.57044°
Mean motion
3.83509 °/min
Orbital period
93.87 mins
BSTAR
0.00060654
Loading maneuver chart data...
Computing Atmospheric mass density...
Loading historical data...
Loading historical data...
Loading historical data...
Loading historical data...
Loading historical data...
Loading historical data...
Loading historical data...

Documentation

Showing up to 5 results
|